CZ-6A DEB, 61175

Orbit data source: Space-Track

CZ-6A DEB, 61175 is space debris in LEO originally from a launch on Tue, 06 Aug 2024 UTC launched from the Taiyaun Space Center, China (TSC). Debris objects in space refer to the collection of defunct objects orbiting the Earth. Examples of debris include non-operational satellites, rocket bodies, and fragments generated from explosions, collisions, or faulty payload assembly.

Loading next visibility...
Identifier
61175, 2024-140RV
Orbit
LEO
Country
Flag of CNCN / PRC
Related business
Manufacturer
SAST
Mission
Spacecraft
Bus & Motor
Unknown
Mass
Unknown
Launch date (UTC)
2024-08-06 (2 years ago)
Launch vehicle
Unknown
Launch site
Taiyaun Space Center, China (TSC)
Object type
Payload
Rocket body
Debris
Shape & HBR
Unknown shape, 0.3 m
Radar Cross Section
Medium (>0.1 m² and <1 m²)

Expand to show TLE details & history
Last TLE update: 16 hours ago

TLE from 16 hours ago
0 CZ-6A DEB
1 61175U 24140RV  26171.25191316  .00000278  00000-0  19742-3 0  9999
2 61175  89.0641 283.3193 0199598 285.3703  72.5494 13.86349237 92343
Epoch: 2026-06-20T06:02Z
TLE epoch observation values (Epoch: 2026-06-20T06:02:45.297Z)
Latitude
0.00005°
Longitude
-75.83865°
Altitude
903.316 km
Speed
7.421 km/s
True Right ascension
18h 53m 16s
True Declination
0° 00' 00"
Sunlit
Object was in full shadow at epoch
Visualization orbit readout
Latitude
Unknown
Longitude
Unknown
Altitude
Unknown
Speed
Unknown
Apparent Right ascension
Unknown
Apparent Declination
Unknown
Sunlit
N/A
Visualization observer readout
Local Sidereal Time
08:42:34
Azimuth
Unknown
Elevation
Unknown
Doppler factor
Unknown
Orbital elements
Apogee altitude
1,084.488 km
Perigee altitude
792.413 km
Semi-major axis
7,316.587 km
Eccentricity
0.01996
Inclination
89.0641°
RAAN
283.3193°
Arg. of periapsis
285.3703°
True anomaly
74.74726°
Mean anomaly
72.5494°
Eccentric anomaly
73.64675°
Mean motion
3.46801 °/min
Orbital period
103.81 mins
BSTAR
0.00019742
Loading maneuver chart data...
Computing Atmospheric mass density...
Loading historical data...
Loading historical data...
Loading historical data...
Loading historical data...
Loading historical data...
Loading historical data...
Loading historical data...

Documentation

Showing up to 5 results
|